CW5217 Weather Reports


time (UTC)temp
F
wind
direction
speed
knots
gust
knots
rain 1hr
in
rain 24hr
in
rain mn
in
humidity
%
barometer
mb
20260504050328 50 52 0.0 0.9 0.00 0.00 0.00 51 1013.5
20260504045826 50 160 2.6 3.5 0.00 0.00 0.00 47 1013.4
20260504045326 50 298 1.7 1.7 0.00 0.00 0.00 47 1013.5
20260504044823 50 121 0.9 2.6 0.00 0.00 0.00 47 1013.4
20260504044320 51 223 2.6 3.5 0.00 0.00 0.00 47 1013.4
20260504043817 50 102 0.9 1.7 0.00 0.00 0.00 48 1013.6
20260504043314 50 139 1.7 2.6 0.00 0.00 0.00 48 1013.3
20260504042812 50 156 1.7 1.7 0.00 0.00 0.00 51 1013.5
20260504042308 50 113 0.0 0.0 0.00 0.00 0.00 51 1013.4
20260504041804 50 32 1.7 1.7 0.00 0.00 0.00 48 1013.4
20260504041300 51 104 0.9 0.9 0.00 0.00 0.00 48 1013.2
20260504040757 51 122 0.9 0.9 0.00 0.00 0.00 49 1013.0
20260504040254 51 164 2.6 2.6 0.00 0.00 0.00 46 1013.2
20260504035750 51 63 1.7 2.6 0.00 0.00 0.00 46 1013.1
20260504035247 51 151 1.7 2.6 0.00 0.00 0.00 45 1013.0
20260504034745 51 147 1.7 2.6 0.00 0.00 0.00 45 1012.9
20260504034242 51 146 2.6 2.6 0.00 0.00 0.00 46 1012.9
20260504033740 51 260 1.7 5.2 0.00 0.00 0.00 45 1012.9
20260504033237 51 111 0.9 1.7 0.00 0.00 0.00 45 1012.8
20260504032734 51 110 0.9 0.9 0.00 0.00 0.00 45 1012.8
20260504032231 52 114 0.9 0.9 0.00 0.00 0.00 44 1012.8
20260504031727 51 118 0.0 1.7 0.00 0.00 0.00 46 1013.0
20260504031225 51 92 0.9 1.7 0.00 0.00 0.00 45 1012.7
20260504030720 51 162 0.9 1.7 0.00 0.00 0.00 45 1012.9
20260504030218 51 128 0.0 0.9 0.00 0.00 0.00 45 1012.9
20260504025714 51 122 1.7 1.7 0.00 0.00 0.00 47 1012.9
20260504025211 50 174 2.6 2.6 0.00 0.00 0.00 46 1012.9
20260504024708 52 95 0.0 0.0 0.00 0.00 0.00 45 1013.0
20260504024205 51 157 2.6 3.5 0.00 0.00 0.00 45 1013.1
20260504023701 52 120 2.6 2.6 0.00 0.00 0.00 44 1012.8
20260504023157 51 306 1.7 1.7 0.00 0.00 0.00 44 1012.9
20260504022654 51 25 0.9 1.7 0.00 0.00 0.00 48 1013.0
20260504022150 51 84 0.0 0.0 0.00 0.00 0.00 49 1012.9
20260504021648 52 88 1.7 1.7 0.00 0.00 0.00 44 1012.9
20260504021144 51 256 2.6 2.6 0.00 0.00 0.00 46 1012.8
20260504020642 50 111 1.7 1.7 0.00 0.00 0.00 45 1012.8
20260504020137 49 85 0.0 0.0 0.00 0.00 0.00 50 1012.9
20260504015634 50 113 0.9 1.7 0.00 0.00 0.00 49 1012.9
20260504015131 51 95 0.0 0.0 0.00 0.00 0.00 49 1012.9
20260504014626 51 95 0.0 0.0 0.00 0.00 0.00 49 1012.9
20260504014124 51 162 1.7 2.6 0.00 0.00 0.00 45 1013.0
20260504013621 51 163 0.0 0.0 0.00 0.00 0.00 47 1012.8
20260504013118 51 179 0.0 0.0 0.00 0.00 0.00 46 1012.7
20260504012615 52 119 0.9 1.7 0.00 0.00 0.00 45 1012.8
20260504012113 51 156 1.7 1.7 0.00 0.00 0.00 44 1012.7
20260504011610 49 98 0.0 0.0 0.00 0.00 0.00 50 1012.6
20260504011106 49 98 0.0 0.0 0.00 0.00 0.00 50 1012.6
20260504010602 50 91 0.0 0.0 0.00 0.00 0.00 50 1012.5
20260504010058 51 119 0.9 1.7 0.00 0.00 0.00 42 1012.4
20260504005555 51 119 0.9 1.7 0.00 0.00 0.00 42 1012.4
20260504005052 52 116 0.0 0.0 0.00 0.00 0.00 42 1012.3
20260504004550 52 116 0.0 0.0 0.00 0.00 0.00 42 1012.3
20260504004047 52 112 0.9 0.9 0.00 0.00 0.00 43 1012.2
20260504003543 52 96 1.7 1.7 0.00 0.00 0.00 42 1012.1
20260504003040 52 134 0.0 0.0 0.00 0.00 0.00 44 1012.1
20260504002537 52 108 0.0 0.0 0.00 0.00 0.00 41 1012.1
20260504002034 53 115 0.0 0.0 0.00 0.00 0.00 42 1012.0
20260504001532 52 115 0.0 0.0 0.00 0.00 0.00 41 1012.0
20260504001027 53 145 1.7 1.7 0.00 0.00 0.00 39 1011.9
20260504000525 53 145 1.7 1.7 0.00 0.00 0.00 39 1011.9
20260504000022 53 145 1.7 1.7 0.00 0.00 0.00 39 1012.1
20260503235520 53 145 1.7 1.7 0.00 0.00 0.00 39 1011.6
20260503235017 54 108 0.0 0.0 0.00 0.00 0.00 40 1011.7
20260503234515 55 113 0.9 1.7 0.00 0.00 0.00 37 1011.3
20260503234013 55 113 0.9 1.7 0.00 0.00 0.00 37 1011.3
20260503233509 54 105 0.0 0.0 0.00 0.00 0.00 37 1011.3
20260503233005 54 106 0.0 0.0 0.00 0.00 0.00 39 1011.5
20260503232502 55 105 0.0 0.0 0.00 0.00 0.00 37 1011.3
20260503232000 55 142 0.0 0.0 0.00 0.00 0.00 36 1011.6
20260503231457 55 119 0.0 0.0 0.00 0.00 0.00 36 1011.5
20260503230954 56 136 0.9 0.9 0.00 0.00 0.00 35 1011.7
20260503230450 56 99 0.9 1.7 0.00 0.00 0.00 37 1011.6
20260503225948 56 188 3.5 3.5 0.00 0.00 0.00 34 1011.6
20260503225444 56 137 1.7 1.7 0.00 0.00 0.00 34 1011.3
20260503224940 56 38 2.6 3.5 0.00 0.00 0.00 34 1011.3
20260503224437 57 210 1.7 2.6 0.00 0.00 0.00 34 1011.3
20260503223935 57 72 1.7 1.7 0.00 0.00 0.00 33 1011.5
20260503223433 57 193 1.7 2.6 0.00 0.00 0.00 33 1011.3
20260503222928 57 205 1.7 3.5 0.00 0.00 0.00 34 1011.5
20260503222427 57 207 4.3 6.1 0.00 0.00 0.00 32 1011.2
20260503221925 57 189 4.3 6.1 0.00 0.00 0.00 32 1011.1
20260503221423 57 261 3.5 7.8 0.00 0.00 0.00 31 1011.1
20260503220919 57 303 3.5 5.2 0.00 0.00 0.00 31 1011.1
20260503220415 57 260 2.6 2.6 0.00 0.00 0.00 33 1011.2
20260503215913 57 176 3.5 3.5 0.00 0.00 0.00 31 1011.2
20260503215410 57 281 2.6 3.5 0.00 0.00 0.00 32 1011.1
20260503214907 57 228 4.3 7.8 0.00 0.00 0.00 31 1011.0
20260503214404 57 244 4.3 6.1 0.00 0.00 0.00 31 1010.9
20260503213902 57 184 4.3 6.1 0.00 0.00 0.00 31 1010.9
20260503213400 57 149 0.9 1.7 0.00 0.00 0.00 32 1011.0
20260503212856 57 178 2.6 2.6 0.00 0.00 0.00 31 1011.0
20260503212354 57 213 5.2 7.0 0.00 0.00 0.00 31 1011.1
20260503211851 57 203 2.6 3.5 0.00 0.00 0.00 32 1010.8
20260503211347 57 201 4.3 6.1 0.00 0.00 0.00 31 1010.9
20260503210842 57 144 0.0 5.2 0.00 0.00 0.00 33 1010.8
20260503210340 57 93 0.0 0.0 0.00 0.00 0.00 36 1010.9
20260503205835 57 35 1.7 1.7 0.00 0.00 0.00 32 1010.7
20260503205332 57 102 1.7 5.2 0.00 0.00 0.00 31 1011.0
20260503204828 56 351 4.3 7.8 0.00 0.00 0.00 31 1011.0
20260503204326 56 103 1.7 6.1 0.00 0.00 0.00 31 1011.1
20260503203823 57 22 1.7 2.6 0.00 0.00 0.00 32 1010.9
20260503203320 55 85 1.7 2.6 0.00 0.00 0.00 33 1011.0
20260503202817 56 271 5.2 6.1 0.00 0.00 0.00 32 1011.2
20260503202315 56 357 2.6 2.6 0.00 0.00 0.00 33 1011.2
20260503201813 56 217 3.5 5.2 0.00 0.00 0.00 34 1011.1
20260503201310 56 156 1.7 2.6 0.00 0.00 0.00 34 1011.0
20260503200802 56 157 3.5 8.7 0.00 0.00 0.00 32 1011.3
20260503200258 55 85 0.9 5.2 0.00 0.00 0.00 33 1011.3
20260503195755 56 256 6.1 7.8 0.00 0.00 0.00 33 1011.7
20260503195251 57 175 7.0 11.3 0.00 0.00 0.00 32 1011.3
20260503194744 56 12 1.7 6.1 0.00 0.00 0.00 31 1011.5
20260503194239 57 95 0.9 3.5 0.00 0.00 0.00 32 1011.7
20260503193735 56 84 2.6 7.8 0.00 0.00 0.00 31 1011.7
20260503193231 57 320 4.3 8.7 0.00 0.00 0.00 31 1011.8
20260503192727 56 348 1.7 6.1 0.00 0.00 0.00 31 1011.6
20260503192222 57 251 3.5 5.2 0.00 0.00 0.00 33 1011.6
20260503191720 56 324 1.7 3.5 0.00 0.00 0.00 34 1011.8
20260503191217 56 98 1.7 3.5 0.00 0.00 0.00 32 1011.6
20260503190714 57 345 2.6 3.5 0.00 0.00 0.00 31 1011.2
20260503190210 56 59 2.6 6.1 0.00 0.00 0.00 31 1011.8
20260503185708 56 266 3.5 9.6 0.00 0.00 0.00 33 1011.7
20260503185203 57 227 3.5 5.2 0.00 0.00 0.00 31 1011.9
20260503184657 55 331 3.5 6.1 0.00 0.00 0.00 33 1011.7
20260503184154 55 291 3.5 3.5 0.00 0.00 0.00 33 1011.9
20260503183650 56 36 3.5 7.8 0.00 0.00 0.00 36 1011.9
20260503183148 55 339 2.6 7.8 0.00 0.00 0.00 32 1012.1
20260503182646 54 274 2.6 3.5 0.00 0.00 0.00 35 1012.0
20260503182144 54 192 2.6 7.0 0.00 0.00 0.00 35 1011.8
20260503181641 56 23 5.2 7.0 0.00 0.00 0.00 34 1012.1
20260503181138 53 262 2.6 3.5 0.00 0.00 0.00 36 1011.9
20260503180635 53 66 4.3 5.2 0.00 0.00 0.00 35 1011.9
20260503180132 53 64 3.5 7.0 0.00 0.00 0.00 35 1012.1
20260503175629 54 239 5.2 6.1 0.00 0.00 0.00 34 1012.1
20260503175126 54 259 3.5 7.0 0.00 0.00 0.00 33 1012.0
20260503174623 53 80 0.9 1.7 0.00 0.00 0.00 36 1011.9
20260503174120 52 153 1.7 7.0 0.00 0.00 0.00 38 1012.1
20260503173615 53 240 5.2 6.1 0.00 0.00 0.00 34 1012.1
20260503173112 55 43 1.7 1.7 0.00 0.00 0.00 35 1012.0
20260503172609 53 141 1.7 7.0 0.00 0.00 0.00 35 1012.1
20260503172106 53 100 2.6 3.5 0.00 0.00 0.00 34 1012.0
20260503171602 52 345 2.6 7.0 0.00 0.00 0.00 37 1012.3
20260503171100 51 39 4.3 7.8 0.00 0.00 0.00 37 1012.6
20260503170556 51 136 0.9 11.3 0.00 0.00 0.00 37 1012.5
20260503150943 47 23 6.1 8.7 0.00 0.00 0.00 48 1013.4
20260503150439 45 59 1.7 1.7 0.00 0.00 0.00 51 1013.2
20260503131332 44 64 1.7 3.5 0.00 0.00 0.00 57 1013.1
20260503130830 43 173 1.7 2.6 0.00 0.00 0.00 59 1013.2
20260503130327 44 116 0.0 0.9 0.00 0.00 0.00 59 1013.0
20260503110720 40 146 1.7 2.6 0.00 0.00 0.00 67 1012.6
20260503110218 40 96 0.9 1.7 0.00 0.00 0.00 67 1012.4
20260503100143 40 338 3.5 3.5 0.00 0.00 0.00 66 1011.3
20260503081538 42 71 0.9 1.7 0.00 0.00 0.00 62 1011.0
20260503081036 42 68 1.7 3.5 0.00 0.00 0.00 60 1011.1
20260503080531 42 104 3.5 3.5 0.00 0.00 0.00 61 1011.0
20260503072505 43 77 1.7 2.6 0.00 0.00 0.00 60 1010.7
20260503072003 43 357 1.7 1.7 0.00 0.00 0.00 59 1010.7
20260503071459 43 82 2.6 3.5 0.00 0.00 0.00 59 1010.5
20260503070955 43 82 0.9 3.5 0.00 0.00 0.00 59 1010.7
20260503070452 43 16 1.7 2.6 0.00 0.00 0.00 60 1010.7
20260503054906 44 36 1.7 2.6 0.00 0.00 0.00 60 1010.8
20260503054402 44 358 1.7 2.6 0.00 0.00 0.00 60 1011.0
20260503053901 44 64 0.9 0.9 0.00 0.00 0.00 62 1011.2
20260503053358 44 80 0.0 0.9 0.00 0.00 0.00 61 1011.5
20260503052854 43 82 0.0 0.0 0.00 0.00 0.00 61 1011.3
20260503052351 43 94 0.0 0.0 0.00 0.00 0.00 65 1011.5